Retour au catalogue

STARLINK-35918

ActifCommunicationsVLEO
NORAD 66643·PAYLOAD·🇺🇸 United States

Lancé Nov 23, 2025 depuis Vandenberg Space Force Base

Loading…

Prochains Passages (prochaines 24 heures)

TLE

FraisSource: CelesTrak SupGP

Époque: Sep 15, 2026, 03:41 UTC

1 66643C 25271AC  26258.15395833  .00061331  00000+0  18112-2 0  2588
2 66643  53.1599 334.8770 0001281  82.1999 332.0047 15.34374531    17

Suivez STARLINK-35918 en temps réel avec AllMySat

Download on the App Store